Time,TemperatureF,DewpointF,PressureIn,WindDirection,WindDirectionDegrees,WindSpeedMPH,WindSpeedGustMPH,Humidity,HourlyPrecipIn,Conditions,Clouds,dailyrainin,SolarRadiationWatts/m^2,SoftwareType,DateUTC
2013-11-04 00:01:00,32.0,13.0,-100.00,West,276,12.0,16.0,44,0.00,,,0.09,0.000000,,2013-11-04 07:01:00,
2013-11-04 00:11:00,32.0,13.0,-100.00,West,276,12.0,16.0,44,0.00,,,0.09,0.000000,,2013-11-04 07:11:00,
2013-11-04 00:21:00,32.0,13.0,-100.00,West,276,12.0,16.0,44,0.00,,,0.09,0.000000,,2013-11-04 07:21:00,
2013-11-04 00:52:00,33.0,12.0,-100.00,West,279,11.0,17.0,42,0.00,,,0.09,0.000000,,2013-11-04 07:52:00,
2013-11-04 01:02:00,33.0,12.0,-100.00,West,279,11.0,17.0,42,0.00,,,0.09,0.000000,,2013-11-04 08:02:00,
2013-11-04 01:12:00,33.0,12.0,-100.00,West,279,11.0,17.0,42,0.00,,,0.09,0.000000,,2013-11-04 08:12:00,
2013-11-04 01:21:00,33.0,12.0,-100.00,West,279,11.0,17.0,42,0.00,,,0.09,0.000000,,2013-11-04 08:21:00,
2013-11-04 01:52:00,33.0,13.0,-100.00,WNW,283,8.0,17.0,44,0.00,,,0.01,0.000000,,2013-11-04 08:52:00,
2013-11-04 02:02:00,33.0,13.0,-100.00,WNW,283,8.0,17.0,44,0.00,,,0.01,0.000000,,2013-11-04 09:02:00,
2013-11-04 02:12:00,33.0,13.0,-100.00,WNW,283,8.0,17.0,44,0.00,,,0.01,0.000000,,2013-11-04 09:12:00,
2013-11-04 02:21:00,33.0,13.0,-100.00,WNW,283,8.0,17.0,44,0.00,,,0.01,0.000000,,2013-11-04 09:21:00,
2013-11-04 02:22:00,32.0,13.0,-100.00,West,267,10.0,14.0,44,0.00,,,0.01,0.000000,,2013-11-04 09:22:00,
2013-11-04 02:53:00,32.0,13.0,-100.00,West,267,10.0,14.0,44,0.00,,,0.01,0.000000,,2013-11-04 09:53:00,
2013-11-04 03:03:00,32.0,13.0,-100.00,West,267,10.0,14.0,44,0.00,,,0.01,0.000000,,2013-11-04 10:03:00,
2013-11-04 03:12:00,32.0,13.0,-100.00,West,267,10.0,14.0,44,0.00,,,0.01,0.000000,,2013-11-04 10:12:00,
2013-11-04 03:22:00,28.0,14.0,-100.00,SSW,197,2.0,13.0,55,0.00,,,0.01,0.000000,,2013-11-04 10:22:00,
2013-11-04 03:52:00,28.0,14.0,-100.00,SSW,197,2.0,13.0,55,0.00,,,0.01,0.000000,,2013-11-04 10:52:00,
2013-11-04 04:02:00,28.0,14.0,-100.00,SSW,197,2.0,13.0,55,0.00,,,0.01,0.000000,,2013-11-04 11:02:00,
2013-11-04 04:12:00,28.0,14.0,-100.00,SSW,197,2.0,13.0,55,0.00,,,0.01,0.000000,,2013-11-04 11:12:00,
2013-11-04 04:52:00,28.0,17.0,-100.00,SSW,203,2.0,7.0,63,0.00,,,0.00,0.000000,,2013-11-04 11:52:00,
2013-11-04 05:02:00,28.0,17.0,-100.00,SSW,203,2.0,7.0,63,0.00,,,0.00,0.000000,,2013-11-04 12:02:00,
2013-11-04 05:11:00,28.0,17.0,-100.00,SSW,203,2.0,7.0,63,0.00,,,0.00,0.000000,,2013-11-04 12:11:00,
2013-11-04 05:21:00,28.0,17.0,-100.00,SSW,203,2.0,7.0,63,0.00,,,0.00,0.000000,,2013-11-04 12:21:00,
2013-11-04 05:52:00,27.0,18.0,-100.00,WNW,303,2.0,4.0,68,0.00,,,0.00,0.000000,,2013-11-04 12:52:00,
2013-11-04 06:01:00,27.0,18.0,-100.00,WNW,303,2.0,4.0,68,0.00,,,0.00,0.000000,,2013-11-04 13:01:00,
2013-11-04 06:11:00,27.0,18.0,-100.00,WNW,303,2.0,4.0,68,0.00,,,0.00,0.000000,,2013-11-04 13:11:00,
2013-11-04 06:21:00,27.0,18.0,-100.00,WNW,303,2.0,4.0,68,0.00,,,0.00,0.000000,,2013-11-04 13:21:00,
2013-11-04 06:52:00,27.0,19.0,-100.00,SSW,195,2.0,3.0,70,0.00,,,0.00,0.000000,,2013-11-04 13:52:00,
2013-11-04 07:02:00,27.0,19.0,-100.00,SSW,195,2.0,3.0,70,0.00,,,0.00,0.000000,,2013-11-04 14:02:00,
2013-11-04 07:11:00,27.0,19.0,-100.00,SSW,195,2.0,3.0,70,0.00,,,0.00,0.000000,,2013-11-04 14:11:00,
2013-11-04 07:21:00,27.0,19.0,-100.00,SSW,195,2.0,3.0,70,0.00,,,0.00,0.000000,,2013-11-04 14:21:00,
2013-11-04 07:52:00,27.0,19.0,-100.00,SE,136,2.0,6.0,72,0.00,,,0.00,2.000000,,2013-11-04 14:52:00,
2013-11-04 08:02:00,27.0,19.0,-100.00,SE,136,2.0,6.0,72,0.00,,,0.00,2.000000,,2013-11-04 15:02:00,
2013-11-04 08:11:00,27.0,19.0,-100.00,SE,136,2.0,6.0,72,0.00,,,0.00,2.000000,,2013-11-04 15:11:00,
2013-11-04 08:21:00,27.0,19.0,-100.00,SE,136,2.0,6.0,72,0.00,,,0.00,2.000000,,2013-11-04 15:21:00,
2013-11-04 08:22:00,30.0,21.0,-100.00,ENE,68,4.0,7.0,69,0.00,,,0.00,69.000000,,2013-11-04 15:22:00,
2013-11-04 08:52:00,30.0,21.0,-100.00,ENE,68,4.0,7.0,69,0.00,,,0.00,69.000000,,2013-11-04 15:52:00,
2013-11-04 09:03:00,30.0,21.0,-100.00,ENE,68,4.0,7.0,69,0.00,,,0.00,69.000000,,2013-11-04 16:03:00,
2013-11-04 09:12:00,30.0,21.0,-100.00,ENE,68,4.0,7.0,69,0.00,,,0.00,69.000000,,2013-11-04 16:12:00,
2013-11-04 09:22:00,32.0,23.0,-100.00,NE,42,4.0,7.0,70,0.00,,,0.00,265.000000,,2013-11-04 16:22:00,
2013-11-04 09:53:00,32.0,23.0,-100.00,NE,42,4.0,7.0,70,0.00,,,0.00,265.000000,,2013-11-04 16:53:00,
2013-11-04 10:03:00,32.0,23.0,-100.00,NE,42,4.0,7.0,70,0.00,,,0.00,265.000000,,2013-11-04 17:03:00,
2013-11-04 10:12:00,32.0,23.0,-100.00,NE,42,4.0,7.0,70,0.00,,,0.00,265.000000,,2013-11-04 17:12:00,
2013-11-04 10:22:00,31.0,23.0,-100.00,NNE,30,6.0,9.0,71,0.00,,,0.00,366.000000,,2013-11-04 17:22:00,
2013-11-04 10:53:00,31.0,23.0,-100.00,NNE,30,6.0,9.0,71,0.00,,,0.00,366.000000,,2013-11-04 17:53:00,
2013-11-04 11:01:00,31.0,23.0,-100.00,NNE,30,6.0,9.0,71,0.00,,,0.00,366.000000,,2013-11-04 18:01:00,
2013-11-04 11:12:00,31.0,23.0,-100.00,NNE,30,6.0,9.0,71,0.00,,,0.00,366.000000,,2013-11-04 18:12:00,
2013-11-04 11:22:00,36.0,22.0,-100.00,NE,54,5.0,10.0,57,0.00,,,0.00,564.000000,,2013-11-04 18:22:00,
2013-11-04 11:52:00,36.0,22.0,-100.00,NE,54,5.0,10.0,57,0.00,,,0.00,564.000000,,2013-11-04 18:52:00,
2013-11-04 12:01:00,36.0,22.0,-100.00,NE,54,5.0,10.0,57,0.00,,,0.00,564.000000,,2013-11-04 19:01:00,
2013-11-04 12:12:00,36.0,22.0,-100.00,NE,54,5.0,10.0,57,0.00,,,0.00,564.000000,,2013-11-04 19:12:00,
2013-11-04 12:22:00,34.0,21.0,-100.00,East,97,7.0,12.0,59,0.00,,,0.00,386.000000,,2013-11-04 19:22:00,
2013-11-04 12:52:00,34.0,21.0,-100.00,East,97,7.0,12.0,59,0.00,,,0.00,386.000000,,2013-11-04 19:52:00,
2013-11-04 13:01:00,34.0,21.0,-100.00,East,97,7.0,12.0,59,0.00,,,0.00,386.000000,,2013-11-04 20:01:00,
2013-11-04 13:11:00,34.0,21.0,-100.00,East,97,7.0,12.0,59,0.00,,,0.00,386.000000,,2013-11-04 20:11:00,
2013-11-04 13:52:00,37.0,21.0,-100.00,ESE,102,6.0,15.0,53,0.00,,,0.00,642.000000,,2013-11-04 20:52:00,
2013-11-04 14:03:00,37.0,21.0,-100.00,ESE,102,6.0,15.0,53,0.00,,,0.00,642.000000,,2013-11-04 21:03:00,
2013-11-04 14:12:00,37.0,21.0,-100.00,ESE,102,6.0,15.0,53,0.00,,,0.00,642.000000,,2013-11-04 21:12:00,
2013-11-04 14:21:00,37.0,21.0,-100.00,ESE,102,6.0,15.0,53,0.00,,,0.00,642.000000,,2013-11-04 21:21:00,
2013-11-04 14:22:00,28.0,25.0,-100.00,NNW,327,13.0,20.0,90,0.00,,,0.00,220.000000,,2013-11-04 21:22:00,
2013-11-04 14:54:00,28.0,25.0,-100.00,NNW,327,13.0,20.0,90,0.00,,,0.00,220.000000,,2013-11-04 21:54:00,
2013-11-04 15:04:00,28.0,25.0,-100.00,NNW,327,13.0,20.0,90,0.00,,,0.00,220.000000,,2013-11-04 22:04:00,
2013-11-04 15:13:00,28.0,25.0,-100.00,NNW,327,13.0,20.0,90,0.00,,,0.00,220.000000,,2013-11-04 22:13:00,
2013-11-04 15:22:00,30.0,27.0,-100.00,WNW,296,8.0,14.0,89,0.00,,,0.00,220.000000,,2013-11-04 22:22:00,
2013-11-04 15:53:00,30.0,27.0,-100.00,WNW,296,8.0,14.0,89,0.00,,,0.00,220.000000,,2013-11-04 22:53:00,
2013-11-04 16:02:00,30.0,27.0,-100.00,WNW,296,8.0,14.0,89,0.00,,,0.00,220.000000,,2013-11-04 23:02:00,
2013-11-04 16:12:00,30.0,27.0,-100.00,WNW,296,8.0,14.0,89,0.00,,,0.00,220.000000,,2013-11-04 23:12:00,
2013-11-04 16:22:00,28.0,25.0,-100.00,NW,306,7.0,17.0,88,0.00,,,0.00,76.000000,,2013-11-04 23:22:00,
2013-11-04 16:53:00,28.0,25.0,-100.00,NW,306,7.0,17.0,88,0.00,,,0.00,76.000000,,2013-11-04 23:53:00,
2013-11-04 17:02:00,28.0,25.0,-100.00,NW,306,7.0,17.0,88,0.00,,,0.00,76.000000,,2013-11-05 00:02:00,
2013-11-04 17:12:00,28.0,25.0,-100.00,NW,306,7.0,17.0,88,0.00,,,0.00,76.000000,,2013-11-05 00:12:00,
2013-11-04 17:52:00,27.0,25.0,-100.00,SW,220,2.0,12.0,92,0.00,,,0.00,5.000000,,2013-11-05 00:52:00,
2013-11-04 18:02:00,27.0,25.0,-100.00,SW,220,2.0,12.0,92,0.00,,,0.00,5.000000,,2013-11-05 01:02:00,
2013-11-04 18:11:00,27.0,25.0,-100.00,SW,220,2.0,12.0,92,0.00,,,0.00,5.000000,,2013-11-05 01:11:00,
2013-11-04 18:21:00,27.0,25.0,-100.00,SW,220,2.0,12.0,92,0.00,,,0.00,5.000000,,2013-11-05 01:21:00,
2013-11-04 18:22:00,25.0,22.0,-100.00,NW,305,0.0,5.0,90,0.00,,,0.00,0.000000,,2013-11-05 01:22:00,
2013-11-04 18:52:00,25.0,22.0,-100.00,NW,305,0.0,5.0,90,0.00,,,0.00,0.000000,,2013-11-05 01:52:00,
2013-11-04 19:01:00,25.0,22.0,-100.00,NW,305,0.0,5.0,90,0.00,,,0.00,0.000000,,2013-11-05 02:01:00,
2013-11-04 19:11:00,25.0,22.0,-100.00,NW,305,0.0,5.0,90,0.00,,,0.00,0.000000,,2013-11-05 02:11:00,
2013-11-04 19:22:00,22.0,20.0,-100.00,West,264,4.0,5.0,91,0.00,,,0.00,0.000000,,2013-11-05 02:22:00,
2013-11-04 19:52:00,22.0,20.0,-100.00,West,264,4.0,5.0,91,0.00,,,0.00,0.000000,,2013-11-05 02:52:00,
2013-11-04 20:02:00,22.0,20.0,-100.00,West,264,4.0,5.0,91,0.00,,,0.00,0.000000,,2013-11-05 03:02:00,
2013-11-04 20:11:00,22.0,20.0,-100.00,West,264,4.0,5.0,91,0.00,,,0.00,0.000000,,2013-11-05 03:11:00,
2013-11-04 20:22:00,21.0,19.0,-100.00,WSW,245,7.0,9.0,92,0.00,,,0.00,0.000000,,2013-11-05 03:22:00,
2013-11-04 20:54:00,21.0,19.0,-100.00,WSW,245,7.0,9.0,92,0.00,,,0.00,0.000000,,2013-11-05 03:54:00,
2013-11-04 21:03:00,21.0,19.0,-100.00,WSW,245,7.0,9.0,92,0.00,,,0.00,0.000000,,2013-11-05 04:03:00,
2013-11-04 21:13:00,21.0,19.0,-100.00,WSW,245,7.0,9.0,92,0.00,,,0.00,0.000000,,2013-11-05 04:13:00,
2013-11-04 21:22:00,20.0,17.0,-100.00,WSW,243,8.0,11.0,89,0.00,,,0.00,0.000000,,2013-11-05 04:22:00,
2013-11-04 21:53:00,20.0,17.0,-100.00,WSW,243,8.0,11.0,89,0.00,,,0.00,0.000000,,2013-11-05 04:53:00,
2013-11-04 22:03:00,20.0,17.0,-100.00,WSW,243,8.0,11.0,89,0.00,,,0.00,0.000000,,2013-11-05 05:03:00,
2013-11-04 22:13:00,20.0,17.0,-100.00,WSW,243,8.0,11.0,89,0.00,,,0.00,0.000000,,2013-11-05 05:13:00,
2013-11-04 22:54:00,20.0,17.0,-100.00,West,279,4.0,10.0,87,0.00,,,0.00,0.000000,,2013-11-05 05:54:00,
2013-11-04 23:03:00,20.0,17.0,-100.00,West,279,4.0,10.0,87,0.00,,,0.00,0.000000,,2013-11-05 06:03:00,
2013-11-04 23:12:00,20.0,17.0,-100.00,West,279,4.0,10.0,87,0.00,,,0.00,0.000000,,2013-11-05 06:12:00,
2013-11-04 23:21:00,20.0,17.0,-100.00,West,279,4.0,10.0,87,0.00,,,0.00,0.000000,,2013-11-05 06:21:00,
2013-11-04 23:22:00,19.0,14.0,-100.00,WSW,241,3.0,12.0,81,0.00,,,0.00,0.000000,,2013-11-05 06:22:00,
2013-11-04 23:52:00,19.0,14.0,-100.00,WSW,241,3.0,12.0,81,0.00,,,0.00,0.000000,,2013-11-05 06:52:00,